Terug naar catalogus

AL YAH 3

ActiefCommunicatieGEO
NORAD 43174·PAYLOAD·🇦🇪 UAE

Gelanceerd Jan 25, 2018 vanaf Guiana Space Centre

Loading…

TLE

VersSource: Space-Track

Epoch: Sep 14, 2026, 10:17 UTC

1 43174U 18012A   26257.42857118 -.00000163  00000-0  00000-0 0  9990
2 43174   1.7764  81.9033 0003459  89.0994 316.6046  1.00272422 31741

Volg AL YAH 3 in realtime met AllMySat

Download on the App Store